SV7RNH Weather Reports


Display with metric or nautical units.
time (UTC)temp
F
wind
direction
speed
MPH
gust
MPH
rain 1hr
in
rain 24hr
in
rain mn
in
humidity
%
barometer
mb
20200926020009 77 0 0.0 3.0 0.00 0.00 0.00 41 1010.0
20200926015020 76 0 0.0 3.0 0.00 0.00 0.00 41 1010.1
20200926014011 76 315 1.0 5.0 0.00 0.00 0.00 41 1010.3
20200926013006 76 327 3.0 5.0 0.00 0.00 0.00 41 1010.3
20200926012008 77 0 0.0 2.0 0.00 0.00 0.00 39 1010.1
20200926011005 77 287 1.0 3.0 0.00 0.00 0.00 39 1010.3
20200926010022 78 332 1.0 4.0 0.00 0.00 0.00 38 1010.5
20200926005008 78 0 0.0 4.0 0.00 0.00 0.00 38 1010.5
20200926004011 78 162 1.0 6.0 0.00 0.00 0.00 37 1010.3
20200926003020 78 134 1.0 8.0 0.00 0.00 0.00 37 1010.4
20200926002010 78 148 3.0 8.0 0.00 0.00 0.00 38 1010.7
20200926001010 78 138 1.0 5.0 0.00 0.00 0.00 37 1011.1
20200926000024 78 145 2.0 7.0 0.00 0.00 0.00 38 1011.1
20200925235018 78 0 0.0 4.0 0.00 0.00 0.00 37 1011.3
20200925234009 78 151 2.0 9.0 0.00 0.00 0.00 37 1011.6
20200925233024 78 141 4.0 8.0 0.00 0.00 0.00 37 1011.7
20200925232007 78 139 2.0 9.0 0.00 0.00 0.00 37 1011.4
20200925231006 78 157 2.0 8.0 0.00 0.00 0.00 36 1011.5
20200925230009 78 162 2.0 8.0 0.00 0.00 0.00 36 1011.5
20200925225012 79 184 2.0 8.0 0.00 0.00 0.00 36 1011.8
20200925224009 79 151 2.0 8.0 0.00 0.00 0.00 36 1012.1
20200925223009 79 128 1.0 8.0 0.00 0.00 0.00 35 1012.5
20200925222005 79 128 1.0 8.0 0.00 0.00 0.00 35 1012.7
20200925221009 79 138 2.0 8.0 0.00 0.00 0.00 35 1012.7
20200925220024 79 144 2.0 8.0 0.00 0.00 0.00 35 1012.8
20200925215005 79 147 3.0 7.0 0.00 0.00 0.00 35 1013.1
20200925214008 79 145 2.0 10.0 0.00 0.00 0.00 35 1013.1
20200925213011 79 134 4.0 8.0 0.00 0.00 0.00 35 1013.3
20200925212014 79 138 3.0 8.0 0.00 0.00 0.00 35 1013.3
20200925211006 79 137 3.0 8.0 0.00 0.00 0.00 35 1013.3
20200925210010 79 137 4.0 8.0 0.00 0.00 0.00 35 1013.4
20200925205004 78 152 2.0 6.0 0.00 0.00 0.00 35 1013.5
20200925204009 78 162 2.0 6.0 0.00 0.00 0.00 34 1013.6
20200925203016 78 0 0.0 4.0 0.00 0.00 0.00 34 1013.8
20200925202009 78 0 0.0 3.0 0.00 0.00 0.00 34 1013.6
20200925201012 78 0 0.0 2.0 0.00 0.00 0.00 32 1013.8
20200925200008 78 0 0.0 1.0 0.00 0.00 0.00 31 1013.9
20200925195009 78 0 0.0 2.0 0.00 0.00 0.00 31 1014.0
20200925194005 79 0 0.0 3.0 0.00 0.00 0.00 30 1014.0
20200925193020 79 0 0.0 3.0 0.00 0.00 0.00 30 1014.0
20200925192012 80 0 0.0 8.0 0.00 0.00 0.00 29 1014.1
20200925191023 80 270 2.0 4.0 0.00 0.00 0.00 29 1014.1
20200925190008 80 136 2.0 11.0 0.00 0.00 0.00 29 1014.2
20200925185005 80 154 2.0 9.0 0.00 0.00 0.00 28 1014.3
20200925184007 80 176 4.0 9.0 0.00 0.00 0.00 28 1014.3
20200925183017 80 156 2.0 8.0 0.00 0.00 0.00 28 1014.3
20200925182019 80 182 2.0 9.0 0.00 0.00 0.00 27 1014.3
20200925181006 80 206 2.0 8.0 0.00 0.00 0.00 27 1014.4
20200925180026 80 164 4.0 9.0 0.00 0.00 0.00 28 1014.4
20200925175007 80 176 3.0 7.0 0.00 0.00 0.00 28 1014.3
20200925174018 81 187 3.0 6.0 0.00 0.00 0.00 27 1014.3
20200925173019 81 188 2.0 8.0 0.00 0.00 0.00 27 1014.3
20200925172012 81 171 3.0 9.0 0.00 0.00 0.00 27 1014.2
20200925171008 82 144 3.0 11.0 0.00 0.00 0.00 27 1014.2
20200925170018 82 176 2.0 9.0 0.00 0.00 0.00 26 1014.5
20200925165005 82 184 2.0 7.0 0.00 0.00 0.00 26 1014.6
20200925164007 83 197 2.0 7.0 0.00 0.00 0.00 24 1014.5
20200925163004 83 0 0.0 7.0 0.00 0.00 0.00 22 1014.6
20200925162005 84 167 2.0 8.0 0.00 0.00 0.00 20 1014.5
20200925161011 85 176 4.0 9.0 0.00 0.00 0.00 19 1014.6
20200925160025 86 170 2.0 11.0 0.00 0.00 0.00 18 1014.6
20200925155005 87 165 5.0 11.0 0.00 0.00 0.00 17 1014.6
20200925154005 88 158 3.0 10.0 0.00 0.00 0.00 15 1014.8
20200925153013 89 168 4.0 9.0 0.00 0.00 0.00 15 1014.8
20200925152005 90 173 4.0 11.0 0.00 0.00 0.00 14 1014.8
20200925151007 91 173 3.0 10.0 0.00 0.00 0.00 14 1015.1
20200925150023 92 183 4.0 10.0 0.00 0.00 0.00 13 1015.0
20200925145004 93 193 4.0 10.0 0.00 0.00 0.00 13 1015.1
20200925144006 93 183 4.0 12.0 0.00 0.00 0.00 12 1015.1
20200925143013 93 193 2.0 11.0 0.00 0.00 0.00 13 1015.2
20200925142006 94 155 3.0 11.0 0.00 0.00 0.00 12 1015.2
20200925141006 94 176 2.0 11.0 0.00 0.00 0.00 11 1015.4
20200925140007 94 162 5.0 13.0 0.00 0.00 0.00 10 1015.6
20200925135008 96 167 4.0 13.0 0.00 0.00 0.00 10 1015.7
20200925134005 96 205 5.0 8.0 0.00 0.00 0.00 10 1015.8
20200925133008 96 201 3.0 8.0 0.00 0.00 0.00 10 1016.1
20200925132006 97 176 3.0 8.0 0.00 0.00 0.00 10 1016.0
20200925131004 97 237 2.0 8.0 0.00 0.00 0.00 10 1016.3
20200925130009 97 188 3.0 8.0 0.00 0.00 0.00 10 1016.5
20200925125012 97 223 3.0 8.0 0.00 0.00 0.00 10 1016.4
20200925124009 97 234 2.0 7.0 0.00 0.00 0.00 10 1016.5
20200925123013 97 251 2.0 7.0 0.00 0.00 0.00 10 1016.6
20200925122006 96 189 3.0 7.0 0.00 0.00 0.00 11 1016.9
20200925121005 96 154 2.0 7.0 0.00 0.00 0.00 11 1016.9
20200925120011 96 193 4.0 7.0 0.00 0.00 0.00 10 1017.2
20200925115006 97 218 1.0 6.0 0.00 0.00 0.00 10 1017.4
20200925114018 96 232 1.0 7.0 0.00 0.00 0.00 10 1017.5
20200925113020 96 172 2.0 9.0 0.00 0.00 0.00 10 1017.7
20200925112004 96 224 2.0 7.0 0.00 0.00 0.00 10 1017.9
20200925111005 96 213 2.0 9.0 0.00 0.00 0.00 10 1018.0
20200925110015 96 268 3.0 8.0 0.00 0.00 0.00 10 1018.2
20200925105006 97 241 2.0 8.0 0.00 0.00 0.00 10 1018.5
20200925104006 97 233 2.0 7.0 0.00 0.00 0.00 10 1018.6
20200925103013 96 195 4.0 7.0 0.00 0.00 0.00 10 1018.6
20200925102013 96 0 0.0 5.0 0.00 0.00 0.00 11 1018.6
20200925101009 95 231 2.0 5.0 0.00 0.00 0.00 11 1018.9
20200925100022 95 270 2.0 7.0 0.00 0.00 0.00 11 1019.0
20200925095004 94 261 1.0 6.0 0.00 0.00 0.00 13 1019.0
20200925094005 94 252 3.0 9.0 0.00 0.00 0.00 12 1019.1
20200925093011 94 234 2.0 5.0 0.00 0.00 0.00 12 1019.3
20200925092006 94 197 1.0 5.0 0.00 0.00 0.00 13 1019.4
20200925091004 93 0 0.0 6.0 0.00 0.00 0.00 15 1019.3
20200925090024 93 231 2.0 6.0 0.00 0.00 0.00 16 1019.3
20200925085007 92 231 1.0 4.0 0.00 0.00 0.00 18 1019.5
20200925084005 91 0 0.0 4.0 0.00 0.00 0.00 20 1019.7
20200925083011 90 194 2.0 5.0 0.00 0.00 0.00 21 1019.8
20200925082010 89 240 1.0 4.0 0.00 0.00 0.00 24 1019.8
20200925081005 88 226 2.0 5.0 0.00 0.00 0.00 26 1019.9
20200925080021 87 242 2.0 5.0 0.00 0.00 0.00 27 1019.9
20200925075011 86 234 2.0 4.0 0.00 0.00 0.00 28 1020.0
20200925074005 85 232 1.0 2.0 0.00 0.00 0.00 31 1019.8
20200925073005 83 0 0.0 2.0 0.00 0.00 0.00 33 1019.7
20200925072004 81 0 0.0 2.0 0.00 0.00 0.00 36 1019.7
20200925071010 80 0 0.0 2.0 0.00 0.00 0.00 36 1019.8
20200925070021 79 0 0.0 3.0 0.00 0.00 0.00 37 1019.7
20200925065006 78 70 1.0 4.0 0.00 0.00 0.00 37 1019.7
20200925064011 77 0 0.0 4.0 0.00 0.00 0.00 38 1019.8
20200925063012 76 17 1.0 3.0 0.00 0.00 0.00 39 1019.8
20200925062012 75 0 0.0 3.0 0.00 0.00 0.00 40 1019.8
20200925061010 74 283 1.0 4.0 0.00 0.00 0.00 41 1019.9
20200925060022 74 351 1.0 4.0 0.00 0.00 0.00 42 1019.9
20200925055006 73 0 0.0 2.0 0.00 0.00 0.00 44 1020.0
20200925054006 72 0 0.0 2.0 0.00 0.00 0.00 44 1019.7
20200925053007 71 247 1.0 4.0 0.00 0.00 0.00 44 1019.9
20200925052006 71 271 1.0 3.0 0.00 0.00 0.00 45 1020.0
20200925051006 70 0 0.0 2.0 0.00 0.00 0.00 46 1020.0
20200925050020 69 0 0.0 2.0 0.00 0.00 0.00 47 1019.8
20200925045011 68 0 0.0 2.0 0.00 0.00 0.00 46 1019.7
20200925044005 68 0 0.0 4.0 0.00 0.00 0.00 46 1019.6
20200925043017 68 321 1.0 3.0 0.00 0.00 0.00 46 1019.6
20200925042007 68 0 0.0 3.0 0.00 0.00 0.00 45 1019.6
20200925041018 69 0 0.0 4.0 0.00 0.00 0.00 45 1019.6
20200925040017 69 27 1.0 5.0 0.00 0.00 0.00 45 1019.7
20200925035007 69 0 0.0 4.0 0.00 0.00 0.00 44 1019.6
20200925034019 69 0 0.0 3.0 0.00 0.00 0.00 44 1019.6
20200925033016 70 0 0.0 3.0 0.00 0.00 0.00 44 1019.6
20200925032011 70 0 0.0 2.0 0.00 0.00 0.00 44 1019.6
20200925031004 70 0 0.0 2.0 0.00 0.00 0.00 44 1019.7
20200925030020 70 0 0.0 4.0 0.00 0.00 0.00 45 1019.8
20200925025005 70 355 1.0 4.0 0.00 0.00 0.00 44 1020.1
20200925024007 70 0 0.0 2.0 0.00 0.00 0.00 44 1020.1
20200925023009 70 0 0.0 2.0 0.00 0.00 0.00 44 1020.1
20200925022011 70 0 0.0 2.0 0.00 0.00 0.00 44 1020.1
20200925021012 70 301 1.0 3.0 0.00 0.00 0.00 44 1020.1